Location: Walnut Point State Park
(39.6958°N, 88.0345°W)
Time: 05:18:35
(UTC-05:00)

Amateur Radio Satellites - All Passes

Search period start: 27 May 2016 04:48
Search period end: 28 May 2016 04:48
Location: Walnut Point State Park, 39.6958°N, 88.0345°W

Satellite Date Start Highest point End Downlink Frequencies (MHz)
Time Altitude Azimuth
STARS 27 May 04:49:41 04:53:47 37° 262° (W) 04:57:54 437.465
Cosmos 2491 27 May 05:04:17 05:13:02 66° 280° (W) 05:21:51 435.465 / 435.565
HORYU 2 27 May 05:30:03 05:34:26 58° 101° (E) 05:38:49 437.375
Cosmos 2504 27 May 05:38:10 05:46:33 71° 267° (W) 05:55:19 435.465 / 435.565
CUBESAT XI-V 27 May 05:45:00 05:49:38 68° 258° (WSW) 05:54:20 437.345
AO-85 27 May 05:45:04 05:50:02 37° 114° (ESE) 05:54:57 145.980
YUBILEINY 27 May 06:11:59 06:15:12 13° 286° (WNW) 06:18:28 435.215
NOAA 18 27 May 06:18:14 06:22:52 27° 96° (E) 06:27:29 137.9125
NOAA 15 27 May 06:22:22 06:27:14 36° 98° (E) 06:32:03 137.62
Cubesat XI-IV 27 May 06:25:07 06:29:35 26° 95° (E) 06:34:02 437.490
AO-7 27 May 06:31:23 06:38:07 28° 304° (WNW) 06:44:51 29.400- 29.500
STRAND 1 27 May 06:48:15 06:53:04 45° 71° (ENE) 06:57:55 437.568
LilacSat-2 27 May 06:57:41 07:01:23 52° 100° (E) 07:05:05 437.200
HORYU 2 27 May 07:08:20 07:10:30 14° 297° (WNW) 07:12:40 437.375
BRITE-PL 27 May 07:08:36 07:13:47 84° 104° (ESE) 07:18:30 437.365/2234.400
Cosmos 2491 27 May 07:08:40 07:11:49 12° 303° (WNW) 07:14:59 435.465 / 435.565
CUTE-I 27 May 07:10:58 07:16:20 72° 103° (ESE) 07:21:41 437.470
AO-85 27 May 07:25:36 07:30:33 35° 310° (NW) 07:35:25 145.980
Cosmos 2504 27 May 07:35:33 07:38:27 12° 284° (WNW) 07:41:22 435.465 / 435.565
GOMX 1 27 May 07:36:24 07:41:07 75° 102° (ESE) 07:45:29 467.674
PRISM 27 May 07:39:49 07:43:08 24° 68° (ENE) 07:46:30 437.425
NOAA 18 27 May 07:58:33 08:03:34 38° 292° (WNW) 08:08:35 137.9125
CUTE 1.7 + AOD 2 27 May 08:01:48 08:04:33 17° 93° (E) 08:07:18 437.475
NOAA 15 27 May 08:02:24 08:06:50 28° 294° (WNW) 08:11:16 137.62
Cubesat XI-IV 27 May 08:04:48 08:09:42 38° 291° (WNW) 08:14:37 437.490
GONETS M04 27 May 08:05:37 08:12:44 27° 68° (ENE) 08:19:47
AUBIESAT-1 27 May 08:07:07 08:08:20 12° 98° (E) 08:09:33 437.475
M-CUBED/EXP-1 PRIME 27 May 08:12:24 08:14:39 17° 100° (E) 08:16:53 437.505
Cosmos 2499 27 May 08:22:24 08:28:39 21° 66° (ENE) 08:35:00 435.465 / 435.565
COMPASS 1 27 May 08:25:36 08:28:09 15° 92° (E) 08:30:40 437.405
AIST 1 27 May 08:26:37 08:30:55 57° 80° (E) 08:35:09
DOVE 4 27 May 08:28:06 08:32:29 65° 285° (WNW) 08:36:38 437.250
STRAND 1 27 May 08:28:42 08:32:25 20° 267° (W) 08:36:11 437.568
AAUSAT CUBESAT 2 27 May 08:29:05 08:31:08 13° 91° (E) 08:33:10 437.432
HO-68 27 May 08:29:26 08:36:10 42° 99° (E) 08:42:52 435.675
LilacSat-2 27 May 08:34:22 08:35:13 11° 295° (WNW) 08:36:04 437.200
BRITE-PL 27 May 08:49:40 08:51:21 12° 301° (WNW) 08:53:00 437.365/2234.400
PCSat 27 May 08:49:44 08:53:11 17° 105° (ESE) 08:56:40 145.827
UWE-3 27 May 08:50:19 08:51:54 12° 91° (E) 08:53:29 435.000/436.395/437.385
SO-50 27 May 08:51:56 08:56:03 29° 48° (NE) 09:00:03 436.795
CUTE-I 27 May 08:52:45 08:55:45 15° 299° (WNW) 08:58:44 437.470
CINEMA 3 27 May 09:02:19 09:06:30 86° 102° (ESE) 09:10:39 145.822/145.860
CANX-2 27 May 09:08:58 09:13:15 72° 284° (WNW) 09:17:31 2200.000
O/OREOS (USA 219) 27 May 09:10:15 09:14:13 30° 104° (ESE) 09:18:11 437.305
SEEDS 27 May 09:12:39 09:16:56 79° 104° (ESE) 09:21:10 437.485
ANTELSAT 27 May 09:12:43 09:14:43 13° 64° (ENE) 09:16:42 437.575/2403.000
PRISM 27 May 09:14:50 09:18:20 26° 264° (W) 09:21:52 437.425
GOMX 1 27 May 09:17:08 09:18:26 11° 300° (WNW) 09:19:42 467.674
CUTE 1.7 + AOD 2 27 May 09:36:33 09:40:33 40° 288° (WNW) 09:44:33 437.475
Oscar 11 27 May 09:38:30 09:42:26 33° 97° (E) 09:46:21 145.826/435.025
AUBIESAT-1 27 May 09:40:01 09:43:00 32° 293° (WNW) 09:45:58 437.475
M-CUBED/EXP-1 PRIME 27 May 09:46:40 09:49:13 21° 295° (WNW) 09:51:45 437.505
ZACube-1 27 May 09:51:38 09:55:36 40° 98° (E) 09:59:37 437.345
CUBEBUG 2 27 May 09:54:58 09:59:07 79° 286° (WNW) 10:03:20 437.445
COMPASS 1 27 May 09:59:54 10:03:53 41° 287° (WNW) 10:07:50 437.405
GONETS M04 27 May 10:01:36 10:10:09 64° 268° (W) 10:18:40
AAUSAT CUBESAT 2 27 May 10:02:49 10:06:52 48° 287° (WNW) 10:10:54 437.432
HUMSAT D 27 May 10:05:23 10:07:24 13° 92° (E) 10:09:26 437.325/437.525
UNISAT 6 27 May 10:05:30 10:09:43 49° 73° (ENE) 10:13:53 437.425
AIST 1 27 May 10:06:46 10:07:55 11° 276° (W) 10:09:05
TIGRISAT 27 May 10:13:08 10:17:25 56° 74° (ENE) 10:21:38 435.000
Cosmos 2499 27 May 10:14:02 10:22:41 83° 264° (W) 10:31:34 435.465 / 435.565
HO-68 27 May 10:17:19 10:23:44 37° 296° (WNW) 10:30:10 435.675
NANOSAT C BR1 27 May 10:17:31 10:18:48 11° 63° (ENE) 10:20:05 145.865
UWE-3 27 May 10:24:36 10:28:39 52° 286° (WNW) 10:32:46 435.000/436.395/437.385
FUNcube-1 27 May 10:29:50 10:34:01 75° 284° (WNW) 10:38:16 145.935
PCSat 27 May 10:30:41 10:36:03 61° 301° (WNW) 10:41:26 145.827
SO-50 27 May 10:32:22 10:36:32 32° 246° (WSW) 10:40:33 436.795
DELFI C3 27 May 10:36:20 10:40:23 73° 103° (ESE) 10:44:24 145.870
ANTELSAT 27 May 10:46:40 10:50:58 56° 259° (W) 10:55:13 437.575/2403.000
O/OREOS (USA 219) 27 May 10:49:46 10:53:35 26° 300° (WNW) 10:57:24 437.305
DUCHIFAT 1 27 May 10:53:45 10:57:16 26° 69° (ENE) 11:00:49 145.980
BEESAT 3 27 May 11:04:15 11:07:29 25° 113° (ESE) 11:10:45 437.485
BUGSAT 1 27 May 11:13:56 11:17:07 21° 68° (ENE) 11:20:17 437.445
ESTCUBE 1 27 May 11:14:31 11:17:12 15° 92° (E) 11:19:53 437.505/2401.250
Oscar 11 27 May 11:15:05 11:18:21 21° 292° (WNW) 11:21:37 145.826/435.025
DANDE 27 May 11:20:20 11:23:26 15° 77° (ENE) 11:26:54 436.750
50 SAT 27 May 11:22:52 11:24:05 11° 92° (E) 11:25:17 437.505
CUSAT 1 27 May 11:26:29 11:32:15 42° 89° (E) 11:39:15 437.405
ZACube-1 27 May 11:28:57 11:31:35 16° 294° (WNW) 11:34:14 437.345
POPSAT HIP 1 27 May 11:30:38 11:34:52 78° 76° (ENE) 11:39:07 437.405
QB50P1 27 May 11:31:04 11:35:19 81° 75° (ENE) 11:39:33 145.935-145.965
CUBEBUG 1 27 May 11:32:15 11:34:54 16° 92° (E) 11:37:32 437.445
QB50P2 27 May 11:33:14 11:37:28 90° 127° (SE) 11:41:44 145.880/145.840
DX 1 27 May 11:34:40 11:36:42 13° 92° (E) 11:38:43 434.975-435.025
POLYITAN 1 27 May 11:35:42 11:39:57 88° 257° (WSW) 11:44:12 437.675
JAS-2 27 May 11:37:42 11:43:38 27° 60° (ENE) 11:49:50 435.910
VELOX 1 27 May 11:37:56 11:40:56 18° 93° (E) 11:43:54 145.980
HUMSAT D 27 May 11:39:16 11:43:16 47° 286° (WNW) 11:47:17 437.325/437.525
UNISAT 6 27 May 11:44:27 11:46:41 14° 268° (W) 11:48:54 437.425
NANOSAT C BR1 27 May 11:49:47 11:53:58 64° 259° (WSW) 11:58:11 145.865
TIGRISAT 27 May 11:52:47 11:54:25 12° 269° (W) 11:56:03 435.000
SPROUT 27 May 12:01:40 12:03:21 12° 91° (E) 12:05:00 437.525
BEESAT 2 27 May 12:05:32 12:09:28 71° 118° (ESE) 12:13:27 435.950
Cosmos 2499 27 May 12:09:53 12:14:30 16° 283° (WNW) 12:19:11 435.465 / 435.565
AISAT 27 May 12:13:00 12:17:15 45° 99° (E) 12:21:28 437.250
PCSat 27 May 12:18:56 12:20:35 11° 322° (NW) 12:22:14 145.827
UKube-1 27 May 12:22:56 12:26:56 36° 98° (E) 12:30:55 .
DUCHIFAT 1 27 May 12:29:28 12:32:55 24° 265° (W) 12:36:22 145.980
BEESAT 3 27 May 12:41:42 12:45:05 27° 310° (NW) 12:48:31 437.485
BUGSAT 1 27 May 12:48:34 12:52:18 31° 263° (W) 12:56:02 437.445
ESTCUBE 1 27 May 12:49:53 12:54:16 48° 287° (WNW) 12:58:38 437.505/2401.250
50 SAT 27 May 12:54:29 12:58:01 43° 287° (WNW) 13:01:34 437.505
Oscar 19 27 May 12:58:33 13:03:27 44° 71° (ENE) 13:08:22 437.125/150
DANDE 27 May 12:59:36 13:04:53 76° 281° (W) 13:11:59 436.750
CUBEBUG 1 27 May 13:07:14 13:11:23 43° 288° (WNW) 13:15:30 437.445
CUSAT 1 27 May 13:08:42 13:14:28 35° 291° (WNW) 13:21:21 437.405
DX 1 27 May 13:08:56 13:13:11 52° 287° (WNW) 13:17:24 434.975-435.025
VELOX 1 27 May 13:13:25 13:17:33 39° 289° (WNW) 13:21:39 145.980
Gurwin Techsat 1B 27 May 13:19:23 13:23:55 30° 67° (ENE) 13:28:29 435.225
JAS-2 27 May 13:20:42 13:27:54 67° 259° (W) 13:35:44 435.910
Cosmos 2491 27 May 13:23:20 13:25:29 11° 56° (NE) 13:27:39 435.465 / 435.565
SPROUT 27 May 13:35:27 13:39:37 53° 286° (WNW) 13:43:43 437.525
ITAMSAT 1 27 May 13:41:08 13:44:39 19° 63° (ENE) 13:48:11 435.822/435.867
BEESAT 2 27 May 13:45:53 13:47:47 13° 317° (NW) 13:49:40 435.950
AO-7 27 May 13:46:48 13:52:09 19° 51° (NE) 13:57:29 29.400- 29.500
AISAT 27 May 13:50:35 13:53:21 16° 295° (WNW) 13:56:06 437.250
UKube-1 27 May 13:59:39 14:02:43 19° 294° (WNW) 14:05:46 .
TISAT 1 27 May 14:00:30 14:04:41 76° 103° (ESE) 14:08:49 437.305
AIST 2 27 May 14:12:38 14:16:45 82° 302° (WNW) 14:20:55 435.215
AO-85 27 May 14:18:22 14:22:12 24° 45° (NE) 14:25:47 145.980
SWISSCUBE 27 May 14:35:17 14:39:40 35° 98° (E) 14:44:02 437.505
Oscar 19 27 May 14:39:01 14:42:56 21° 266° (W) 14:46:53 437.125/150
ITUPSAT 1 27 May 14:41:17 14:45:42 35° 98° (E) 14:50:05 437.325
DANDE 27 May 14:47:09 14:49:29 12° 306° (NW) 14:52:02 436.750
Gurwin Techsat 1B 27 May 14:58:59 15:03:45 34° 263° (W) 15:08:33 435.225
BEESAT 27 May 15:04:46 15:09:31 64° 102° (ESE) 15:14:16 436.000
JAS-2 27 May 15:12:48 15:14:19 11° 278° (W) 15:15:50 435.910
Cosmos 2491 27 May 15:15:43 15:24:24 62° 79° (E) 15:32:59 435.465 / 435.565
YUBILEINY 27 May 15:16:33 15:23:21 27° 82° (E) 15:30:10 435.215
ITAMSAT 1 27 May 15:18:39 15:23:41 54° 259° (W) 15:28:46 435.822/435.867
AO-7 27 May 15:35:25 15:43:42 83° 71° (ENE) 15:52:03 29.400- 29.500
AIST 2 27 May 15:54:59 15:55:55 11° 320° (NW) 15:56:51 435.215
AO-85 27 May 15:58:35 16:02:50 38° 246° (WSW) 16:06:43 145.980
KKS-1 27 May 16:03:37 16:07:34 31° 97° (E) 16:11:30 437.445
SWISSCUBE 27 May 16:13:25 16:17:16 24° 293° (WNW) 16:21:06 437.505
MOZHAYETS 4 27 May 16:17:36 16:21:50 35° 97° (E) 16:26:04
ITUPSAT 1 27 May 16:19:30 16:23:20 24° 294° (WNW) 16:27:09 437.325
Cosmos 2504 27 May 16:26:28 16:30:40 16° 78° (ENE) 16:34:56 435.465 / 435.565
HORYU 2 27 May 16:27:08 16:31:23 48° 72° (ENE) 16:35:38 437.375
STARS 27 May 16:39:37 16:43:44 39° 99° (E) 16:47:47 437.465
RS-15 27 May 16:41:41 16:51:56 43° 107° (ESE) 17:02:41 29.354- 29.394
BRITE-PL 27 May 16:42:39 16:45:00 13° 60° (ENE) 16:47:22 437.365/2234.400
BEESAT 27 May 16:44:16 16:46:45 14° 298° (WNW) 16:49:15 436.000
CUTE-I 27 May 16:55:20 16:57:59 14° 60° (ENE) 17:00:39 437.470
YUBILEINY 27 May 17:10:52 17:19:26 63° 281° (W) 17:28:04 435.215
Cosmos 2491 27 May 17:13:38 17:20:32 27° 278° (W) 17:27:25 435.465 / 435.565
AO-7 27 May 17:31:48 17:37:20 19° 268° (W) 17:42:55 29.400- 29.500
PCSat 27 May 17:37:27 17:40:34 15° 43° (NE) 17:43:40 145.827
LilacSat-2 27 May 17:39:20 17:42:22 23° 70° (ENE) 17:45:24 437.200
KKS-1 27 May 17:40:29 17:43:59 23° 293° (WNW) 17:47:27 437.445
NOAA 15 27 May 17:41:25 17:46:34 54° 71° (ENE) 17:51:45 137.62
CUBESAT XI-V 27 May 17:42:39 17:46:52 31° 96° (E) 17:51:02 437.345
NOAA 18 27 May 17:43:33 17:48:47 49° 70° (ENE) 17:54:01 137.9125
Cubesat XI-IV 27 May 17:46:12 17:51:07 40° 70° (ENE) 17:56:03 437.490
MOZHAYETS 4 27 May 17:55:12 17:58:47 23° 293° (WNW) 18:02:23
DOVE 4 27 May 17:57:03 17:59:33 14° 63° (ENE) 18:02:00 437.250
HORYU 2 27 May 18:05:42 18:08:11 15° 268° (W) 18:10:40 437.375
Cosmos 2504 27 May 18:15:42 18:22:54 79° 278° (W) 18:30:32 435.465 / 435.565
STARS 27 May 18:16:46 18:19:47 18° 294° (WNW) 18:22:47 437.465
BRITE-PL 27 May 18:16:57 18:22:34 85° 76° (ENE) 18:28:19 437.365/2234.400
CUTE-I 27 May 18:32:03 18:37:21 77° 257° (WSW) 18:42:41 437.470
GOMX 1 27 May 18:42:08 18:47:36 74° 76° (ENE) 18:52:59 467.674
AUBIESAT-1 27 May 18:51:36 18:54:26 19° 64° (ENE) 18:57:09 437.475
RS-15 27 May 18:52:49 19:03:58 58° 310° (NW) 19:15:50 29.354- 29.394
CUTE 1.7 + AOD 2 27 May 18:55:29 18:56:43 11° 63° (ENE) 18:57:58 437.475
M-CUBED/EXP-1 PRIME 27 May 18:57:32 19:01:02 27° 66° (ENE) 19:04:21 437.505
HO-68 27 May 18:57:46 19:03:44 30° 61° (ENE) 19:09:41 435.675
STRAND 1 27 May 19:00:41 19:03:51 16° 92° (E) 19:07:00 437.568
LilacSat-2 27 May 19:13:35 19:16:36 22° 265° (W) 19:19:36 437.200
YUBILEINY 27 May 19:15:59 19:18:15 11° 303° (WNW) 19:20:31 435.215
PCSat 27 May 19:19:17 19:24:46 88° 69° (ENE) 19:30:10 145.827
CUBESAT XI-V 27 May 19:20:14 19:24:05 26° 292° (WNW) 19:27:56 437.345
O/OREOS (USA 219) 27 May 19:20:29 19:24:52 50° 65° (ENE) 19:29:12 437.305
BEESAT 3 27 May 19:22:40 19:24:53 14° 44° (NE) 19:27:05 437.485
NOAA 15 27 May 19:23:04 19:26:39 18° 267° (W) 19:30:15 137.62
NOAA 18 27 May 19:25:37 19:29:40 21° 266° (W) 19:33:44 137.9125
Cubesat XI-IV 27 May 19:27:01 19:31:18 24° 265° (W) 19:35:35 437.490
DOVE 4 27 May 19:31:23 19:36:38 76° 258° (WSW) 19:41:43 437.250
BRITE-PL 27 May 19:59:18 20:01:39 13° 273° (W) 20:04:02 437.365/2234.400
CANX-2 27 May 20:00:33 20:04:44 71° 76° (ENE) 20:08:56 2200.000
CINEMA 3 27 May 20:02:23 20:07:08 71° 76° (ENE) 20:11:42 145.822/145.860
SEEDS 27 May 20:03:24 20:07:22 46° 74° (ENE) 20:11:24 437.485
Cosmos 2504 27 May 20:14:39 20:17:45 13° 300° (WNW) 20:20:54 435.465 / 435.565
GOMX 1 27 May 20:23:20 20:26:07 14° 271° (W) 20:28:53 467.674
BEESAT 2 27 May 20:24:33 20:28:09 32° 52° (NE) 20:31:44 435.950
AUBIESAT-1 27 May 20:24:56 20:28:44 34° 256° (WSW) 20:32:19 437.475
CUTE 1.7 + AOD 2 27 May 20:27:51 20:31:59 63° 259° (WSW) 20:36:12 437.475
M-CUBED/EXP-1 PRIME 27 May 20:32:04 20:35:31 24° 258° (WSW) 20:38:47 437.505
Oscar 11 27 May 20:32:47 20:36:12 23° 68° (ENE) 20:39:37 145.826/435.025
STRAND 1 27 May 20:38:19 20:43:22 57° 288° (WNW) 20:48:24 437.568
HO-68 27 May 20:44:07 20:51:03 53° 259° (W) 20:58:02 435.675
ZACube-1 27 May 20:46:53 20:50:32 29° 70° (ENE) 20:54:09 437.345
COMPASS 1 27 May 20:49:16 20:53:23 71° 259° (WSW) 20:57:33 437.405
AAUSAT CUBESAT 2 27 May 20:51:42 20:55:50 84° 257° (WSW) 21:00:00 437.432
CUBEBUG 2 27 May 20:51:52 20:56:16 76° 76° (ENE) 21:00:32 437.445
AIST 1 27 May 20:54:58 20:58:57 35° 91° (E) 21:02:58
PRISM 27 May 20:56:31 21:00:30 41° 99° (E) 21:04:26 437.425
PHONESAT 2.4 27 May 20:58:38 20:59:01 10° 145° (SE) 20:59:24 2401.200-2431.200
BEESAT 3 27 May 20:59:03 21:02:56 59° 242° (WSW) 21:06:48 437.485
O/OREOS (USA 219) 27 May 21:01:25 21:03:47 14° 261° (W) 21:06:07 437.305
Cosmos 2499 27 May 21:02:21 21:05:14 13° 76° (ENE) 21:08:10 435.465 / 435.565
PCSat 27 May 21:05:47 21:07:19 11° 258° (WSW) 21:08:50 145.827
GONETS M04 27 May 21:06:00 21:13:25 32° 84° (E) 21:20:48
RS-15 27 May 21:11:02 21:19:56 24° 341° (NNW) 21:29:10 29.354- 29.394
ISS 27 May 21:11:29 21:14:36 43° 137° (SE) 21:17:44 145.825
UWE-3 27 May 21:20:21 21:24:41 75° 259° (WSW) 21:28:54 435.000/436.395/437.385
DELFI C3 27 May 21:21:30 21:25:07 35° 72° (ENE) 21:28:47 145.870
FUNcube-1 27 May 21:24:16 21:28:28 74° 77° (ENE) 21:32:39 145.935
SEEDS 27 May 21:41:16 21:43:20 13° 269° (W) 21:45:25 437.485
CINEMA 3 27 May 21:43:29 21:44:38 11° 270° (W) 21:45:47 145.822/145.860
DANDE 27 May 21:57:41 22:03:22 19° 61° (ENE) 22:08:45 436.750
UNISAT 6 27 May 22:00:48 22:01:22 10° 90° (E) 22:01:55 437.425
CUSAT 1 27 May 22:02:42 22:09:33 33° 68° (ENE) 22:15:24 437.405
BEESAT 2 27 May 22:02:46 22:05:48 21° 248° (WSW) 22:08:50 435.950
TIGRISAT 27 May 22:07:20 22:08:55 12° 91° (E) 22:10:31 435.000
Oscar 11 27 May 22:08:28 22:12:11 28° 264° (W) 22:15:56 145.826/435.025
ESTCUBE 1 27 May 22:14:02 22:16:19 14° 63° (ENE) 22:18:36 437.505/2401.250
ZACube-1 27 May 22:23:31 22:26:48 22° 265° (W) 22:30:05 437.345
CUBEBUG 1 27 May 22:28:16 22:30:22 13° 63° (ENE) 22:32:26 437.445
HUMSAT D 27 May 22:29:19 22:33:23 79° 257° (WSW) 22:37:29 437.325/437.525
DX 1 27 May 22:30:28 22:31:54 11° 62° (ENE) 22:33:19 434.975-435.025
PHONESAT 2.4 27 May 22:32:14 22:35:16 45° 159° (SSE) 22:38:16 2401.200-2431.200
PRISM 27 May 22:32:52 22:35:27 16° 295° (WNW) 22:38:02 437.425
AIST 1 27 May 22:33:31 22:36:39 19° 287° (WNW) 22:39:48
AIST 2 27 May 22:34:46 22:38:48 48° 55° (NE) 22:42:49 435.215
VELOX 1 27 May 22:35:03 22:37:41 16° 64° (ENE) 22:40:20 145.980
ANTELSAT 27 May 22:39:10 22:42:57 29° 97° (E) 22:46:46 437.575/2403.000
ISS 27 May 22:48:25 22:51:10 24° 334° (NNW) 22:53:55 145.825
Cosmos 2499 27 May 22:49:39 22:56:52 84° 96° (E) 23:04:38 435.465 / 435.565
DELFI C3 27 May 22:57:41 23:00:06 16° 267° (W) 23:02:33 145.870
GONETS M04 27 May 23:01:13 23:09:46 54° 283° (WNW) 23:18:20
SO-50 27 May 23:08:34 23:09:41 11° 106° (ESE) 23:10:49 436.795
AISAT 27 May 23:09:26 23:13:32 37° 71° (ENE) 23:17:39 437.250
UKube-1 27 May 23:16:44 23:20:27 29° 69° (ENE) 23:24:11 .
POPSAT HIP 1 27 May 23:18:00 23:19:59 13° 92° (E) 23:21:57 437.405
QB50P1 27 May 23:18:18 23:20:23 13° 92° (E) 23:22:27 145.935-145.965
QB50P2 27 May 23:20:20 23:22:48 15° 93° (E) 23:25:16 145.880/145.840
POLYITAN 1 27 May 23:22:44 23:25:15 15° 93° (E) 23:27:47 437.675
RS-15 27 May 23:29:30 23:38:33 23° 17° (NNE) 23:47:43 29.354- 29.394
50 SAT 27 May 23:31:28 23:35:04 69° 76° (ENE) 23:38:43 437.505
UNISAT 6 27 May 23:34:12 23:38:27 64° 285° (WNW) 23:42:47 437.425
NANOSAT C BR1 27 May 23:35:43 23:38:52 20° 94° (E) 23:42:00 145.865
DANDE 27 May 23:38:58 23:47:29 86° 80° (E) 23:55:03 436.750
TIGRISAT 27 May 23:41:43 23:45:56 56° 286° (WNW) 23:50:11 435.000
CUSAT 1 27 May 23:44:39 23:51:54 47° 270° (W) 23:57:56 437.405
ESTCUBE 1 27 May 23:48:09 23:52:36 59° 260° (W) 23:57:06 437.505/2401.250
CUBEBUG 1 28 May 00:01:45 00:06:07 60° 259° (W) 00:10:31 437.445
DX 1 28 May 00:03:07 00:07:30 69° 258° (WSW) 00:11:53 434.975-435.025
PHONESAT 2.4 28 May 00:08:49 00:11:58 76° 358° (N) 00:15:06 2401.200-2431.200
VELOX 1 28 May 00:09:24 00:13:44 50° 260° (W) 00:18:05 145.980
DUCHIFAT 1 28 May 00:13:28 00:17:34 53° 100° (E) 00:21:37 145.980
AIST 2 28 May 00:14:32 00:16:52 15° 251° (WSW) 00:19:12 435.215
ANTELSAT 28 May 00:16:07 00:19:31 23° 292° (WNW) 00:22:58 437.575/2403.000
ISS 28 May 00:27:37 00:28:31 11° 354° (N) 00:29:24 145.825
SPROUT 28 May 00:27:41 00:31:59 81° 260° (W) 00:36:17 437.525
BUGSAT 1 28 May 00:30:52 00:34:37 36° 98° (E) 00:38:20 437.445
JAS-2 28 May 00:33:23 00:38:48 22° 89° (E) 00:43:47 435.910
SO-50 28 May 00:44:32 00:49:27 86° 299° (WNW) 00:54:23 436.795
Cosmos 2499 28 May 00:46:35 00:51:08 17° 297° (WNW) 00:55:52 435.465 / 435.565
AISAT 28 May 00:46:52 00:50:07 20° 266° (W) 00:53:22 437.250
TISAT 1 28 May 00:51:04 00:55:08 49° 73° (ENE) 00:59:13 437.305
POPSAT HIP 1 28 May 00:51:59 00:56:02 48° 287° (WNW) 01:00:04 437.405
QB50P1 28 May 00:52:23 00:56:25 47° 287° (WNW) 01:00:25 145.935-145.965
UKube-1 28 May 00:52:58 00:56:28 24° 264° (W) 01:00:00 .
QB50P2 28 May 00:54:50 00:58:48 41° 288° (WNW) 01:02:45 145.880/145.840
POLYITAN 1 28 May 00:57:18 01:01:15 40° 288° (WNW) 01:05:11 437.675
NANOSAT C BR1 28 May 01:10:56 01:14:38 30° 290° (WNW) 01:18:18 145.865
Oscar 19 28 May 01:12:08 01:15:17 16° 92° (E) 01:18:25 437.125/150
DANDE 28 May 01:23:40 01:29:10 20° 280° (W) 01:34:21 436.750
YUBILEINY 28 May 01:28:59 01:31:45 12° 57° (ENE) 01:34:30 435.215
Gurwin Techsat 1B 28 May 01:38:16 01:40:05 12° 89° (E) 01:41:53 435.225
SWISSCUBE 28 May 01:40:55 01:45:15 37° 70° (ENE) 01:49:36 437.505
RS-15 28 May 01:42:52 01:54:52 54° 48° (NE) 02:06:48 29.354- 29.394
PHONESAT 2.4 28 May 01:45:37 01:48:45 81° 193° (SSW) 01:51:53 2401.200-2431.200
ITUPSAT 1 28 May 01:47:12 01:51:34 37° 70° (ENE) 01:55:58 437.325
DUCHIFAT 1 28 May 01:50:53 01:52:48 13° 296° (WNW) 01:54:42 145.980
ISS 28 May 02:04:22 02:06:06 13° 15° (NNE) 02:07:49 145.825
BUGSAT 1 28 May 02:07:08 02:09:42 16° 294° (WNW) 02:12:15 437.445
BEESAT 28 May 02:10:10 02:14:52 67° 74° (ENE) 02:19:36 436.000
JAS-2 28 May 02:17:05 02:24:29 66° 288° (WNW) 02:31:02 435.910
Cosmos 2491 28 May 02:25:36 02:28:48 12° 74° (ENE) 02:32:00 435.465 / 435.565
SO-50 28 May 02:27:58 02:30:40 14° 320° (NW) 02:33:22 436.795
TISAT 1 28 May 02:29:03 02:31:03 13° 268° (W) 02:33:03 437.305
Oscar 19 28 May 02:49:54 02:54:57 57° 287° (WNW) 02:59:58 437.125/150
KKS-1 28 May 03:00:58 03:04:43 27° 68° (ENE) 03:08:29 437.445
Gurwin Techsat 1B 28 May 03:15:16 03:20:37 80° 286° (WNW) 03:25:55 435.225
MOZHAYETS 4 28 May 03:18:47 03:22:44 30° 69° (ENE) 03:26:42
SWISSCUBE 28 May 03:19:27 03:23:07 22° 266° (W) 03:26:49 437.505
YUBILEINY 28 May 03:21:48 03:30:30 64° 79° (E) 03:39:12 435.215
PHONESAT 2.4 28 May 03:22:43 03:25:15 23° 208° (SSW) 03:27:47 2401.200-2431.200
ITUPSAT 1 28 May 03:25:52 03:29:30 22° 266° (W) 03:33:09 437.325
ITAMSAT 1 28 May 03:32:05 03:37:14 57° 101° (E) 03:42:22 435.822/435.867
STARS 28 May 03:35:27 03:39:22 32° 70° (ENE) 03:43:16 437.465
AO-7 28 May 03:38:41 03:45:42 29° 96° (E) 03:52:39 29.400- 29.500
ISS 28 May 03:39:59 03:43:10 48° 33° (NNE) 03:46:20 145.825
BEESAT 28 May 03:51:18 03:53:05 12° 270° (W) 03:54:53 436.000
RS-15 28 May 03:55:45 04:07:21 50° 250° (WSW) 04:18:50 29.354- 29.394
JAS-2 28 May 04:04:55 04:07:54 13° 309° (NW) 04:10:48 435.910
Cosmos 2504 28 May 04:08:05 04:15:50 38° 73° (ENE) 04:23:52 435.465 / 435.565
Cosmos 2491 28 May 04:15:11 04:23:57 73° 94° (E) 04:32:45 435.465 / 435.565
AO-85 28 May 04:34:34 04:35:50 11° 105° (ESE) 04:37:06 145.980
KKS-1 28 May 04:37:25 04:41:12 27° 264° (W) 04:45:01 437.445
